Location: Unspecified
(40.7945°N, 0.0000°E)
Time: 20:44:01
(UTC+00:00)

Explorer 7 - Pass Details

Date: 23 June 2021
Orbit: 484 x 676 km, 50.3° (Epoch: 30 July)

Event Time Altitude Azimuth Distance (km) Brightness Sun altitude
Rises 01:47:55 0° 302° (WNW) 2,968 10.6 -21.2°
Reaches altitude 10° 01:50:19 10° 301° (WNW) 2,030 9.7 -21.0°
Maximum altitude 01:54:59 76° 216° (SW) 636 6.9 -20.6°
Drops below altitude 10° 01:59:21 10° 132° (SE) 1,903 9.4 -20.3°
Sets 02:01:32 0° 130° (SE) 2,766 10.3 -20.1°
